{"data":{"norad_id":56016,"intl_designator":"2023-042AG","name":"STARLINK-5943","alt_names":[],"object_type":"PAYLOAD","status":"ACTIVE","operator":null,"country":"US","launch_date":"2023-03-24","launch_site_code":"AFETR","launch_vehicle":null,"mission":null,"orbit_class":"UNKNOWN","rcs_meters":null,"size_class":null,"mass_kg":null,"dimensions":null,"purposes":["comms"],"wikipedia_slug":null,"has_3d_model":false,"image_url":null,"decayed_at":null,"tle_current":{"epoch":"2026-05-24T21:02:22.026912Z","epoch_age_seconds":88897,"freshness":"FRESH","line1":"1 56016U 23042AG  26144.87664383 -.00001974  00000+0 -62225-4 0  9994","line2":"2 56016  43.0024 335.2695 0001371 253.6358 106.4343 15.27573634174680","mean_motion":15.27573634,"eccentricity":0.0001371,"inclination_deg":43.0024,"raan_deg":335.2695,"arg_perigee_deg":253.6358,"mean_anomaly_deg":106.4343,"bstar":-6.2225e-5,"rev_number":17468,"period_min":94.267141560261,"perigee_km":482.12748697282,"apogee_km":484.0088294272,"semimajor_km":6861.2051582,"source":"CELESTRAK","updated_at":"2026-05-25T13:38:17.927784Z"}}}